CZ-6A DEB, 54569

Orbit data source: Space-Track

CZ-6A DEB, 54569 is space debris in SSO originally from a launch on Fri, 11 Nov 2022 UTC launched from the Taiyaun Space Center, China (TSC). Debris objects in space refer to the collection of defunct objects orbiting the Earth. Examples of debris include non-operational satellites, rocket bodies, and fragments generated from explosions, collisions, or faulty payload assembly.

Loading next visibility...
Identifier
54569, 2022-151LV
Orbit
SSO
Country
Flag of CNCN / PRC
Related business
Manufacturer
SAST
Mission
Spacecraft
Bus & Motor
Unknown
Mass
Unknown
Launch date (UTC)
2022-11-11 (4 years ago)
Launch vehicle
Unknown
Launch site
Taiyaun Space Center, China (TSC)
Object type
Payload
Rocket body
Debris
Shape & HBR
Unknown shape, 0.1 m
Radar Cross Section
Medium (>0.1 m² and <1 m²)

Expand to show TLE details & history
Last TLE update: 3 days ago

TLE from 3 days ago
0 CZ-6A DEB
1 54569U 22151LV  26170.77441267  .00063048  00000-0  37837-2 0  9995
2 54569  98.6312 259.6307 0036339 210.8679 149.0411 15.10110087191903
Epoch: 2026-06-19T18:35Z
TLE epoch observation values (Epoch: 2026-06-19T18:35:09.254Z)
Latitude
-0.00004°
Longitude
72.84358°
Altitude
560.477 km
Speed
7.569 km/s
True Right ascension
17h 18m 31s
True Declination
0° 00' 00"
Sunlit
Object was in full shadow at epoch
Visualization orbit readout
Latitude
Unknown
Longitude
Unknown
Altitude
Unknown
Speed
Unknown
Apparent Right ascension
Unknown
Apparent Declination
Unknown
Sunlit
N/A
Visualization observer readout
Local Sidereal Time
23:18:43
Azimuth
Unknown
Elevation
Unknown
Doppler factor
Unknown
Orbital elements
Apogee altitude
558.013 km
Perigee altitude
507.785 km
Semi-major axis
6,911.036 km
Eccentricity
0.00363
Inclination
98.6312°
RAAN
259.6307°
Arg. of periapsis
210.8679°
True anomaly
149.25448°
Mean anomaly
149.0411°
Eccentric anomaly
149.14787°
Mean motion
3.77771 °/min
Orbital period
95.3 mins
BSTAR
0.0037837
Loading maneuver chart data...
Computing Atmospheric mass density...
Loading historical data...
Loading historical data...
Loading historical data...
Loading historical data...
Loading historical data...
Loading historical data...
Loading historical data...

Documentation

Showing up to 5 results
|